Powrót do katalogu

STARLINK-11561

AktywnyŁącznośćVLEO
NORAD 62908·PAYLOAD·🇺🇸 United States

Wystrzelony Feb 8, 2025 z Cape Canaveral Space Force Station

Loading…

Następne Przeloty (najbliższe 24 godziny)

TLE

ŚwieżeSource: CelesTrak SupGP

Epoka: Sep 14, 2026, 22:49 UTC

1 62908C 25027B   26257.95118056  .00010928  00000+0  84903-4 0  2572
2 62908  43.0002 286.5922 0001472 257.8010   8.0934 15.70826783    19

Śledź STARLINK-11561 w czasie rzeczywistym z AllMySat

Download on the App Store